ANZ025M NZAA-NZNR

Flight info

Callsign ANZ025M
Flight time 1h 5m
Altitude 16000
Route ORIDI H211 HN Y550 GENDA H211 NR
Aircraft AT76/M-SDFGIRY/S

Departure

Time 2026-04-16 07:18
Airport Auckland International Airport (NZAA)

Arrival

Time 2026-04-16 08:24
Airport Hawke's Bay Airport (NZNR)
Time Latitude Longitude Altitude Speed Heading
2026-04-16 06:59 -37.00656 174.79355 23 ft 0 kts 302°
2026-04-16 07:14 -37.00658 174.79339 23 ft 2 kts 231°
2026-04-16 07:14 -37.00675 174.79343 22 ft 8 kts 154°
2026-04-16 07:14 -37.00718 174.79351 22 ft 4 kts 220°
2026-04-16 07:15 -37.00765 174.79325 23 ft 7 kts 177°
2026-04-16 07:15 -37.00804 174.79352 23 ft 7 kts 122°
2026-04-16 07:15 -37.00781 174.79461 22 ft 21 kts 71°
2026-04-16 07:15 -37.00739 174.79618 22 ft 11 kts 71°
2026-04-16 07:16 -37.00722 174.79702 22 ft 9 kts 99°
2026-04-16 07:16 -37.00770 174.79746 22 ft 8 kts 159°
2026-04-16 07:16 -37.00801 174.79758 22 ft 0 kts 165°
2026-04-16 07:17 -37.00805 174.79759 23 ft 8 kts 166°
2026-04-16 07:17 -37.00862 174.79775 23 ft 7 kts 172°
2026-04-16 07:17 -37.00902 174.79729 22 ft 17 kts 250°
2026-04-16 07:17 -37.01002 174.79362 22 ft 71 kts 251°
2026-04-16 07:18 -37.01215 174.78593 26 ft 114 kts 249°
2026-04-16 07:18 -37.01477 174.77634 472 ft 115 kts 250°
2026-04-16 07:18 -37.01748 174.76637 904 ft 127 kts 249°
2026-04-16 07:18 -37.02053 174.75530 1281 ft 144 kts 249°
2026-04-16 07:19 -37.02390 174.74335 1810 ft 145 kts 248°
2026-04-16 07:19 -37.02732 174.73180 2528 ft 138 kts 247°
2026-04-16 07:19 -37.03289 174.72297 3177 ft 136 kts 201°
2026-04-16 07:19 -37.04249 174.72200 3474 ft 146 kts 193°
2026-04-16 07:20 -37.05307 174.71993 3650 ft 158 kts 197°
2026-04-16 07:20 -37.06386 174.71715 4062 ft 158 kts 197°
2026-04-16 07:20 -37.07466 174.71444 4449 ft 159 kts 197°
2026-04-16 07:20 -37.08550 174.71169 4837 ft 160 kts 197°
2026-04-16 07:21 -37.09640 174.70888 5207 ft 160 kts 197°
2026-04-16 07:21 -37.10732 174.70606 5592 ft 160 kts 197°
2026-04-16 07:21 -37.11822 174.70321 5989 ft 161 kts 197°
2026-04-16 07:21 -37.12910 174.70049 6363 ft 161 kts 197°
2026-04-16 07:22 -37.14015 174.69785 6711 ft 162 kts 197°
2026-04-16 07:22 -37.15128 174.69518 7056 ft 163 kts 198°
2026-04-16 07:22 -37.16247 174.69241 7396 ft 164 kts 198°
2026-04-16 07:22 -37.17372 174.68952 7742 ft 165 kts 198°
2026-04-16 07:23 -37.18501 174.68661 8084 ft 166 kts 199°
2026-04-16 07:23 -37.19637 174.68368 8436 ft 167 kts 199°
2026-04-16 07:23 -37.20778 174.68074 8769 ft 168 kts 200°
2026-04-16 07:23 -37.21913 174.67779 9100 ft 169 kts 200°
2026-04-16 07:24 -37.23071 174.67479 9431 ft 170 kts 200°
2026-04-16 07:24 -37.24236 174.67175 9747 ft 172 kts 200°
2026-04-16 07:24 -37.25410 174.66870 10063 ft 173 kts 201°
2026-04-16 07:24 -37.26586 174.66565 10370 ft 173 kts 201°
2026-04-16 07:25 -37.27764 174.66246 10675 ft 174 kts 201°
2026-04-16 07:25 -37.28949 174.65926 11005 ft 175 kts 201°
2026-04-16 07:25 -37.30140 174.65603 11317 ft 176 kts 201°
2026-04-16 07:25 -37.31337 174.65285 11613 ft 176 kts 201°
2026-04-16 07:26 -37.32524 174.64975 11911 ft 177 kts 201°
2026-04-16 07:26 -37.33731 174.64658 12206 ft 178 kts 201°
2026-04-16 07:26 -37.34945 174.64339 12494 ft 179 kts 201°
2026-04-16 07:26 -37.36163 174.64020 12822 ft 179 kts 201°
2026-04-16 07:27 -37.37382 174.63706 13114 ft 180 kts 201°
2026-04-16 07:27 -37.38670 174.63860 13387 ft 206 kts 163°
2026-04-16 07:27 -37.39715 174.65247 13612 ft 233 kts 127°
2026-04-16 07:27 -37.40318 174.67193 13849 ft 245 kts 112°
2026-04-16 07:28 -37.40653 174.69326 14056 ft 251 kts 105°
2026-04-16 07:28 -37.40883 174.71479 14302 ft 253 kts 103°
2026-04-16 07:28 -37.41100 174.73675 14528 ft 253 kts 104°
2026-04-16 07:28 -37.41332 174.75872 14775 ft 253 kts 106°
2026-04-16 07:29 -37.41947 174.77852 14900 ft 238 kts 139°
2026-04-16 07:29 -37.43004 174.79434 15132 ft 236 kts 142°
2026-04-16 07:29 -37.44056 174.81028 15356 ft 238 kts 139°
2026-04-16 07:29 -37.45031 174.82723 15608 ft 241 kts 135°
2026-04-16 07:30 -37.45923 174.84510 15873 ft 242 kts 132°
2026-04-16 07:30 -37.46780 174.86339 15957 ft 251 kts 131°
2026-04-16 07:30 -37.47689 174.88271 15967 ft 262 kts 130°
2026-04-16 07:30 -37.48634 174.90276 15992 ft 270 kts 130°
2026-04-16 07:31 -37.49611 174.92334 16016 ft 278 kts 130°
2026-04-16 07:31 -37.50609 174.94448 16033 ft 284 kts 130°
2026-04-16 07:31 -37.51630 174.96600 16030 ft 289 kts 130°
2026-04-16 07:31 -37.52668 174.98788 16030 ft 292 kts 129°
2026-04-16 07:32 -37.53710 175.00989 16062 ft 293 kts 129°
2026-04-16 07:32 -37.54752 175.03182 16074 ft 291 kts 130°
2026-04-16 07:32 -37.55787 175.05363 16069 ft 289 kts 130°
2026-04-16 07:32 -37.56803 175.07502 16070 ft 288 kts 130°
2026-04-16 07:33 -37.57827 175.09656 16117 ft 286 kts 130°
2026-04-16 07:33 -37.58844 175.11813 16122 ft 286 kts 130°
2026-04-16 07:33 -37.59859 175.13964 16126 ft 285 kts 130°
2026-04-16 07:33 -37.60876 175.16111 16136 ft 285 kts 130°
2026-04-16 07:34 -37.61906 175.18231 16128 ft 279 kts 135°
2026-04-16 07:34 -37.63239 175.19864 16143 ft 263 kts 153°
2026-04-16 07:34 -37.64715 175.21190 16143 ft 258 kts 160°
2026-04-16 07:34 -37.66254 175.22253 16140 ft 254 kts 165°
2026-04-16 07:35 -37.67851 175.23206 16143 ft 254 kts 166°
2026-04-16 07:35 -37.69458 175.24149 16146 ft 255 kts 166°
2026-04-16 07:35 -37.71066 175.25106 16145 ft 256 kts 165°
2026-04-16 07:35 -37.72670 175.26099 16138 ft 257 kts 165°
2026-04-16 07:36 -37.74275 175.27104 16142 ft 258 kts 165°
2026-04-16 07:36 -37.75881 175.28111 16137 ft 258 kts 165°
2026-04-16 07:36 -37.77490 175.29119 16136 ft 258 kts 165°
2026-04-16 07:36 -37.79100 175.30132 16137 ft 259 kts 165°
2026-04-16 07:37 -37.80693 175.31132 16133 ft 259 kts 165°
2026-04-16 07:37 -37.82309 175.32146 16131 ft 260 kts 165°
2026-04-16 07:37 -37.83928 175.33161 16129 ft 260 kts 165°
2026-04-16 07:37 -37.85552 175.34155 16129 ft 259 kts 165°
2026-04-16 07:38 -37.87180 175.35126 16157 ft 258 kts 167°
2026-04-16 07:38 -37.88817 175.36051 16163 ft 257 kts 168°
2026-04-16 07:38 -37.90457 175.36959 16165 ft 258 kts 168°
2026-04-16 07:38 -37.92098 175.37872 16163 ft 258 kts 168°
2026-04-16 07:39 -37.93718 175.38775 16156 ft 258 kts 168°
2026-04-16 07:39 -37.95363 175.39696 16092 ft 262 kts 167°
2026-04-16 07:39 -37.97024 175.40656 16013 ft 263 kts 168°
2026-04-16 07:39 -37.98708 175.41565 15969 ft 263 kts 168°
2026-04-16 07:40 -38.00395 175.42471 15955 ft 263 kts 168°
2026-04-16 07:40 -38.02078 175.43372 15945 ft 263 kts 168°
2026-04-16 07:40 -38.03754 175.44297 15937 ft 263 kts 168°
2026-04-16 07:40 -38.05426 175.45228 15933 ft 262 kts 168°
2026-04-16 07:41 -38.07072 175.46147 15932 ft 262 kts 168°
2026-04-16 07:41 -38.08739 175.47078 15933 ft 261 kts 168°
2026-04-16 07:41 -38.10402 175.48008 15929 ft 261 kts 168°
2026-04-16 07:41 -38.12063 175.48944 15931 ft 261 kts 168°
2026-04-16 07:42 -38.13717 175.49887 15934 ft 261 kts 168°
2026-04-16 07:42 -38.15370 175.50830 15931 ft 260 kts 168°
2026-04-16 07:42 -38.17019 175.51761 15933 ft 259 kts 168°
2026-04-16 07:42 -38.18667 175.52697 15923 ft 259 kts 168°
2026-04-16 07:43 -38.20282 175.53621 15918 ft 257 kts 168°
2026-04-16 07:43 -38.21917 175.54546 15931 ft 257 kts 168°
2026-04-16 07:43 -38.23552 175.55462 15923 ft 257 kts 168°
2026-04-16 07:43 -38.25187 175.56377 15930 ft 257 kts 168°
2026-04-16 07:44 -38.26825 175.57302 15923 ft 257 kts 168°
2026-04-16 07:44 -38.28460 175.58223 15927 ft 257 kts 168°
2026-04-16 07:44 -38.30077 175.59132 15919 ft 258 kts 168°
2026-04-16 07:44 -38.31718 175.60048 15917 ft 258 kts 168°
2026-04-16 07:45 -38.33360 175.60961 15915 ft 257 kts 168°
2026-04-16 07:45 -38.34992 175.61882 15917 ft 256 kts 168°
2026-04-16 07:45 -38.36619 175.62813 15917 ft 256 kts 168°
2026-04-16 07:45 -38.38245 175.63734 15917 ft 256 kts 168°
2026-04-16 07:46 -38.39874 175.64656 15916 ft 256 kts 168°
2026-04-16 07:46 -38.41501 175.65577 15918 ft 256 kts 168°
2026-04-16 07:46 -38.43134 175.66500 15913 ft 256 kts 168°
2026-04-16 07:46 -38.44764 175.67421 15915 ft 256 kts 168°
2026-04-16 07:47 -38.46373 175.68332 15914 ft 256 kts 168°
2026-04-16 07:47 -38.48001 175.69251 15915 ft 256 kts 168°
2026-04-16 07:47 -38.49635 175.70169 15918 ft 257 kts 168°
2026-04-16 07:47 -38.51271 175.71095 15910 ft 258 kts 168°
2026-04-16 07:48 -38.52905 175.72029 15912 ft 257 kts 168°
2026-04-16 07:48 -38.54538 175.72955 15917 ft 257 kts 168°
2026-04-16 07:48 -38.56173 175.73881 15916 ft 257 kts 168°
2026-04-16 07:48 -38.57786 175.74798 15932 ft 257 kts 168°
2026-04-16 07:49 -38.59424 175.75732 15920 ft 258 kts 168°
2026-04-16 07:49 -38.61099 175.76683 15912 ft 258 kts 168°
2026-04-16 07:49 -38.62704 175.77597 15908 ft 258 kts 168°
2026-04-16 07:49 -38.64343 175.78525 15910 ft 258 kts 168°
2026-04-16 07:50 -38.65983 175.79452 15911 ft 258 kts 168°
2026-04-16 07:50 -38.67627 175.80387 15907 ft 259 kts 168°
2026-04-16 07:50 -38.69273 175.81331 15898 ft 259 kts 169°
2026-04-16 07:50 -38.70916 175.82269 15898 ft 259 kts 168°
2026-04-16 07:51 -38.72560 175.83207 15903 ft 259 kts 168°
2026-04-16 07:51 -38.74179 175.84131 15902 ft 258 kts 168°
2026-04-16 07:51 -38.75823 175.85067 15899 ft 258 kts 169°
2026-04-16 07:51 -38.77465 175.86000 15899 ft 258 kts 168°
2026-04-16 07:52 -38.79106 175.86938 15900 ft 258 kts 168°
2026-04-16 07:52 -38.80743 175.87879 15902 ft 258 kts 168°
2026-04-16 07:52 -38.82382 175.88814 15928 ft 258 kts 169°
2026-04-16 07:52 -38.84014 175.89804 15905 ft 265 kts 160°
2026-04-16 07:53 -38.85391 175.91518 15899 ft 285 kts 139°
2026-04-16 07:53 -38.86517 175.93643 15899 ft 290 kts 133°
2026-04-16 07:53 -38.87574 175.95861 15892 ft 292 kts 132°
2026-04-16 07:53 -38.88631 175.98088 15891 ft 292 kts 132°
2026-04-16 07:54 -38.89689 176.00266 15923 ft 291 kts 133°
2026-04-16 07:54 -38.90801 176.02444 15904 ft 292 kts 134°
2026-04-16 07:54 -38.91934 176.04616 15896 ft 293 kts 135°
2026-04-16 07:54 -38.93070 176.06792 15886 ft 293 kts 135°
2026-04-16 07:55 -38.94205 176.08967 15887 ft 293 kts 134°
2026-04-16 07:55 -38.95333 176.11141 15890 ft 293 kts 134°
2026-04-16 07:55 -38.96455 176.13328 15890 ft 293 kts 134°
2026-04-16 07:55 -38.97570 176.15525 15887 ft 293 kts 134°
2026-04-16 07:56 -38.98689 176.17717 15888 ft 293 kts 134°
2026-04-16 07:56 -38.99795 176.19880 15894 ft 294 kts 133°
2026-04-16 07:56 -39.00911 176.22082 15843 ft 295 kts 134°
2026-04-16 07:56 -39.02034 176.24299 15676 ft 299 kts 133°
2026-04-16 07:57 -39.03177 176.26556 15572 ft 301 kts 132°
2026-04-16 07:57 -39.04298 176.28842 15461 ft 303 kts 132°
2026-04-16 07:57 -39.05440 176.31144 15268 ft 309 kts 132°
2026-04-16 07:57 -39.06629 176.33508 14649 ft 324 kts 132°
2026-04-16 07:58 -39.07936 176.35930 14002 ft 331 kts 133°
2026-04-16 07:58 -39.08780 176.37569 13823 ft 333 kts 129°
2026-04-16 07:58 -39.10331 176.40944 13671 ft 318 kts 131°
2026-04-16 07:58 -39.11508 176.43293 13463 ft 315 kts 131°
2026-04-16 07:59 -39.12688 176.45647 13116 ft 311 kts 132°
2026-04-16 07:59 -39.13883 176.47982 12888 ft 312 kts 132°
2026-04-16 07:59 -39.15073 176.50314 12799 ft 311 kts 131°
2026-04-16 07:59 -39.15845 176.51865 12676 ft 311 kts 131°
2026-04-16 08:00 -39.17023 176.54195 12581 ft 309 kts 131°
2026-04-16 08:00 -39.18214 176.56478 12502 ft 304 kts 134°
2026-04-16 08:00 -39.19485 176.58632 12454 ft 300 kts 137°
2026-04-16 08:00 -39.20804 176.60698 12355 ft 298 kts 138°
2026-04-16 08:01 -39.22115 176.62760 12276 ft 296 kts 139°
2026-04-16 08:01 -39.23409 176.64837 12196 ft 297 kts 137°
2026-04-16 08:01 -39.24663 176.66946 12120 ft 296 kts 137°
2026-04-16 08:01 -39.25922 176.69044 12027 ft 295 kts 136°
2026-04-16 08:02 -39.27165 176.71109 11951 ft 279 kts 137°
2026-04-16 08:02 -39.29253 176.74610 11199 ft 240 kts 138°
2026-04-16 08:02 -39.30328 176.76380 10173 ft 254 kts 137°
2026-04-16 08:03 -39.31370 176.78133 9646 ft 238 kts 136°
2026-04-16 08:03 -39.32322 176.79870 8902 ft 237 kts 133°
2026-04-16 08:03 -39.33233 176.81670 8086 ft 238 kts 130°
2026-04-16 08:03 -39.33702 176.83763 7336 ft 253 kts 96°
2026-04-16 08:04 -39.33685 176.86002 6593 ft 242 kts 106°
2026-04-16 08:04 -39.34324 176.87833 5992 ft 211 kts 145°
2026-04-16 08:04 -39.35506 176.88635 5868 ft 194 kts 187°
2026-04-16 08:04 -39.36870 176.88382 5824 ft 209 kts 200°
2026-04-16 08:05 -39.38364 176.88012 5788 ft 227 kts 198°
2026-04-16 08:05 -39.39951 176.87694 5787 ft 232 kts 197°
2026-04-16 08:05 -39.41446 176.87480 6625 ft 202 kts 193°
2026-04-16 08:05 -39.42806 176.87377 7259 ft 194 kts 192°
2026-04-16 08:06 -39.44146 176.87309 7878 ft 187 kts 191°
2026-04-16 08:06 -39.45502 176.87249 7982 ft 196 kts 193°
2026-04-16 08:06 -39.46823 176.87091 8029 ft 191 kts 194°
2026-04-16 08:06 -39.48124 176.86867 8045 ft 185 kts 197°
2026-04-16 08:07 -39.49369 176.86790 8051 ft 174 kts 190°
2026-04-16 08:07 -39.50552 176.86711 8061 ft 167 kts 194°
2026-04-16 08:07 -39.51700 176.86590 8073 ft 165 kts 195°
2026-04-16 08:07 -39.52842 176.86446 8062 ft 165 kts 195°
2026-04-16 08:08 -39.53982 176.86298 8065 ft 165 kts 195°
2026-04-16 08:08 -39.55125 176.86158 8058 ft 165 kts 195°
2026-04-16 08:08 -39.56248 176.86015 8059 ft 164 kts 195°
2026-04-16 08:08 -39.57386 176.85867 8057 ft 163 kts 197°
2026-04-16 08:09 -39.58308 176.85281 8079 ft 145 kts 239°
2026-04-16 08:09 -39.58297 176.83981 8079 ft 165 kts 291°
2026-04-16 08:09 -39.57277 176.83081 8062 ft 198 kts 334°
2026-04-16 08:09 -39.55896 176.82767 8048 ft 203 kts 339°
2026-04-16 08:10 -39.54488 176.82509 8059 ft 205 kts 341°
2026-04-16 08:10 -39.53058 176.82286 8052 ft 208 kts 342°
2026-04-16 08:10 -39.51670 176.81954 8059 ft 192 kts 321°
2026-04-16 08:10 -39.50612 176.81062 8067 ft 184 kts 313°
2026-04-16 08:11 -39.49536 176.80110 8069 ft 190 kts 313°
2026-04-16 08:11 -39.48446 176.79121 8060 ft 193 kts 313°
2026-04-16 08:11 -39.47346 176.78105 8055 ft 195 kts 313°
2026-04-16 08:11 -39.46241 176.77068 8057 ft 196 kts 312°
2026-04-16 08:12 -39.45126 176.76026 8077 ft 199 kts 313°
2026-04-16 08:12 -39.44000 176.74966 8094 ft 202 kts 312°
2026-04-16 08:12 -39.42871 176.73898 8079 ft 205 kts 313°
2026-04-16 08:12 -39.41717 176.72797 8078 ft 207 kts 313°
2026-04-16 08:13 -39.40565 176.71696 8082 ft 208 kts 312°
2026-04-16 08:13 -39.39403 176.70577 8080 ft 209 kts 312°
2026-04-16 08:13 -39.38229 176.69456 8076 ft 211 kts 312°
2026-04-16 08:13 -39.37065 176.68340 8060 ft 211 kts 312°
2026-04-16 08:14 -39.35891 176.67219 8080 ft 209 kts 312°
2026-04-16 08:14 -39.34634 176.66301 8088 ft 215 kts 337°
2026-04-16 08:14 -39.33159 176.66527 7692 ft 220 kts 16°
2026-04-16 08:14 -39.31753 176.67355 7147 ft 224 kts 18°
2026-04-16 08:15 -39.30361 176.68246 6680 ft 223 kts 20°
2026-04-16 08:15 -39.28989 176.69141 6233 ft 220 kts 20°
2026-04-16 08:15 -39.27643 176.70073 5813 ft 218 kts 21°
2026-04-16 08:15 -39.26323 176.71007 5428 ft 215 kts 22°
2026-04-16 08:16 -39.25037 176.71929 5050 ft 209 kts 21°
2026-04-16 08:16 -39.23780 176.72821 4646 ft 205 kts 21°
2026-04-16 08:16 -39.22690 176.73966 4206 ft 208 kts 58°
2026-04-16 08:16 -39.22351 176.75767 4135 ft 216 kts 99°
2026-04-16 08:17 -39.22904 176.77513 4088 ft 210 kts 139°
2026-04-16 08:17 -39.24090 176.78412 4094 ft 194 kts 180°
2026-04-16 08:17 -39.25417 176.78466 4095 ft 192 kts 187°
2026-04-16 08:17 -39.26650 176.78569 4037 ft 162 kts 182°
2026-04-16 08:18 -39.27691 176.78763 4042 ft 147 kts 181°
2026-04-16 08:19 -39.33197 176.85721 3520 ft 171 kts 142°
2026-04-16 08:20 -39.34024 176.86434 3200 ft 128 kts 182°
2026-04-16 08:20 -39.34787 176.86863 2902 ft 114 kts 181°
2026-04-16 08:20 -39.35527 176.87148 2901 ft 111 kts 188°
2026-04-16 08:20 -39.36216 176.87350 2868 ft 90 kts 194°
2026-04-16 08:21 -39.36846 176.87499 2519 ft 104 kts 187°
2026-04-16 08:21 -39.37577 176.87707 2412 ft 112 kts 193°
2026-04-16 08:21 -39.38267 176.87831 2356 ft 104 kts 198°
2026-04-16 08:21 -39.39018 176.87759 2211 ft 113 kts 200°
2026-04-16 08:22 -39.39780 176.87612 2019 ft 109 kts 205°
2026-04-16 08:22 -39.40569 176.87470 1781 ft 117 kts 199°
2026-04-16 08:22 -39.41385 176.87379 1465 ft 118 kts 189°
2026-04-16 08:22 -39.42163 176.87295 1252 ft 112 kts 193°
2026-04-16 08:23 -39.42984 176.87176 1006 ft 122 kts 196°
2026-04-16 08:23 -39.43802 176.87085 747 ft 114 kts 194°
2026-04-16 08:23 -39.44575 176.86995 512 ft 116 kts 193°
2026-04-16 08:23 -39.45379 176.86894 283 ft 120 kts 194°
2026-04-16 08:24 -39.46209 176.86808 66 ft 113 kts 194°
2026-04-16 08:24 -39.46712 176.86743 38 ft 0 kts 177°
2026-04-16 08:24 -39.46716 176.86761 38 ft 4 kts 56°
2026-04-16 08:24 -39.46658 176.86790 38 ft 9 kts 63°
2026-04-16 08:25 -39.46667 176.86949 34 ft 20 kts 94°
2026-04-16 08:25 -39.46676 176.87060 35 ft 11 kts 113°
2026-04-16 08:25 -39.46712 176.87116 35 ft 3 kts 147°
2026-04-16 08:25 -39.46716 176.87115 35 ft 0 kts 182°